QPF
0.00 0.00 0.00 0.00 0.00 0.00 0.00 0.00 0.00 0.00 0.00 0.00 0.00 0.01 0.01 0.00 0.00 0.00 0.01 0.02 0.02 0.02 0.01 0.00 0.00 0.01 0.01 0.01 0.01 0.01 0.02 0.02 0.04 0.04 0.05 0.06 0.06 0.05 0.05 0.06 0.05 0.04 0.04 0.05
0.00 0.00 0.00 0.00 0.00 0.00 0.00 0.00 0.00 0.00 0.00 0.00 0.00 0.00 0.01 0.01 0.00 0.01 0.04 0.05 0.02 0.02 0.01 0.00 0.00 0.00 0.02 0.02 0.01 0.01 0.03 0.02 0.02 0.03 0.04 0.05 0.06 0.05 0.06 0.06 0.06 0.03 0.03 0.04
0.00 0.00 0.00 0.00 0.00 0.00 0.00 0.00 0.00 0.00 0.00 0.00 0.00 0.01 0.02 0.03 0.03 0.03 0.04 0.07 0.03 0.01 0.00 0.00 0.00 0.00 0.01 0.01 0.02 0.02 0.02 0.02 0.02 0.03 0.04 0.05 0.07 0.07 0.09 0.08 0.08 0.05 0.03 0.04
0.00 0.00 0.00 0.00 0.00 0.00 0.00 0.00 0.00 0.00 0.00 0.00 0.00 0.01 0.03 0.06 0.05 0.05 0.01 0.01 0.01 0.00 0.00 0.00 0.00 0.00 0.01 0.02 0.02 0.02 0.02 0.03 0.04 0.05 0.06 0.06 0.07 0.09 0.10 0.08 0.08 0.08 0.06 0.05
0.00 0.00 0.00 0.00 0.00 0.00 0.00 0.00 0.00 0.00 0.01 0.00 0.00 0.00 0.02 0.04 0.05 0.03 0.01 0.00 0.00 0.00 0.00 0.00 0.00 0.00 0.02 0.02 0.01 0.01 0.01 0.02 0.04 0.05 0.07 0.07 0.07 0.08 0.08 0.07 0.09 0.11 0.11 0.09
0.00 0.00 0.00 0.00 0.00 0.00 0.00 0.00 0.00 0.00 0.00 0.00 0.00 0.00 0.01 0.03 0.04 0.03 0.01 0.00 0.00 0.00 0.00 0.00 0.00 0.00 0.00 0.01 0.00 0.00 0.00 0.01 0.02 0.03 0.04 0.06 0.06 0.07 0.08 0.08 0.09 0.09 0.09 0.09
0.00 0.00 0.00 0.00 0.00 0.00 0.00 0.00 0.00 0.00 0.00 0.00 0.00 0.00 0.01 0.01 0.01 0.02 0.00 0.00 0.00 0.00 0.00 0.00 0.00 0.00 0.00 0.00 0.00 0.00 0.00 0.01 0.02 0.03 0.04 0.06 0.06 0.06 0.06 0.06 0.06 0.07 0.08 0.12
0.00 0.00 0.00 0.00 0.00 0.00 0.00 0.00 0.00 0.00 0.00 0.01 0.00 0.00 0.00 0.00 0.00 0.00 0.00 0.00 0.01 0.00 0.00 0.00 0.00 0.01 0.01 0.00 0.00 0.01 0.01 0.01 0.01 0.02 0.03 0.05 0.05 0.06 0.07 0.06 0.07 0.07 0.07 0.09
0.00 0.00 0.00 0.00 0.00 0.00 0.00 0.00 0.00 0.00 0.00 0.00 0.00 0.00 0.00 0.00 0.00 0.00 0.00 0.00 0.00 0.00 0.00 0.00 0.00 0.00 0.00 0.00 0.00 0.01 0.01 0.01 0.01 0.02 0.02 0.04 0.04 0.05 0.06 0.07 0.07 0.07 0.07 0.07
0.00 0.00 0.00 0.00 0.00 0.00 0.00 0.00 0.00 0.00 0.00 0.00 0.01 0.01 0.01 0.03 0.00 0.00 0.00 0.00 0.00 0.00 0.00 0.00 0.00 0.00 0.00 0.00 0.00 0.01 0.01 0.01 0.01 0.02 0.02 0.03 0.04 0.04 0.06 0.08 0.07 0.08 0.08 0.06
0.00 0.00 0.00 0.00 0.00 0.00 0.00 0.00 0.00 0.00 0.00 0.00 0.00 0.01 0.04 0.06 0.01 0.00 0.00 0.00 0.00 0.00 0.00 0.00 0.00 0.00 0.00 0.00 0.00 0.01 0.01 0.02 0.02 0.03 0.03 0.04 0.05 0.04 0.05 0.07 0.07 0.07 0.08 0.09
0.00 0.00 0.00 0.00 0.00 0.00 0.00 0.00 0.00 0.00 0.00 0.00 0.00 0.01 0.01 0.02 0.01 0.00 0.00 0.00 0.00 0.00 0.00 0.00 0.00 0.00 0.00 0.00 0.01 0.01 0.01 0.02 0.03 0.03 0.03 0.04 0.05 0.04 0.06 0.07 0.08 0.08 0.10 0.14
0.00 0.00 0.00 0.00 0.00 0.00 0.00 0.00 0.00 0.00 0.00 0.00 0.00 0.01 0.00 0.02 0.02 0.00 0.00 0.00 0.00 0.00 0.00 0.00 0.00 0.00 0.00 0.00 0.01 0.01 0.01 0.01 0.01 0.01 0.02 0.04 0.04 0.04 0.05 0.07 0.07 0.05 0.07 0.09
0.00 0.00 0.00 0.00 0.00 0.00 0.00 0.00 0.00 0.00 0.00 0.00 0.00 0.01 0.00 0.00 0.01 0.00 0.00 0.00 0.00 0.00 0.00 0.00 0.00 0.01 0.01 0.01 0.01 0.01 0.00 0.01 0.01 0.01 0.01 0.02 0.03 0.03 0.04 0.06 0.06 0.06 0.06 0.06
0.00 0.00 0.00 0.00 0.00 0.00 0.00 0.00 0.00 0.00 0.00 0.00 0.00 0.00 0.00 0.00 0.00 0.00 0.00 0.00 0.00 0.00 0.00 0.01 0.01 0.01 0.02 0.02 0.01 0.00 0.00 0.01 0.02 0.02 0.02 0.02 0.02 0.03 0.04 0.04 0.04 0.05 0.07 0.07
0.01 0.01 0.00 0.00 0.00 0.00 0.00 0.00 0.00 0.00 0.00 0.00 0.00 0.01 0.01 0.00 0.00 0.00 0.00 0.01 0.01 0.01 0.00 0.01 0.01 0.01 0.01 0.01 0.01 0.01 0.01 0.01 0.01 0.02 0.02 0.02 0.03 0.03 0.04 0.05 0.04 0.04 0.04 0.05
0.02 0.03 0.02 0.01 0.01 0.00 0.01 0.00 0.00 0.00 0.00 0.00 0.00 0.00 0.02 0.02 0.00 0.00 0.00 0.00 0.00 0.01 0.00 0.01 0.01 0.01 0.01 0.01 0.02 0.02 0.01 0.01 0.01 0.01 0.01 0.02 0.04 0.04 0.04 0.04 0.04 0.03 0.03 0.05
0.00 0.01 0.02 0.02 0.02 0.01 0.00 0.00 0.00 0.00 0.00 0.00 0.00 0.00 0.01 0.01 0.00 0.00 0.00 0.00 0.01 0.01 0.01 0.01 0.01 0.01 0.01 0.01 0.02 0.01 0.01 0.01 0.01 0.01 0.01 0.01 0.03 0.03 0.03 0.03 0.03 0.03 0.03 0.05
0.00 0.01 0.01 0.01 0.01 0.01 0.00 0.00 0.01 0.00 0.00 0.00 0.00 0.00 0.00 0.00 0.00 0.01 0.00 0.00 0.01 0.00 0.02 0.03 0.02 0.02 0.02 0.03 0.02 0.01 0.01 0.01 0.01 0.01 0.01 0.01 0.03 0.03 0.03 0.03 0.03 0.03 0.02 0.03
0.00 0.01 0.01 0.01 0.01 0.01 0.01 0.01 0.01 0.01 0.01 0.00 0.00 0.00 0.00 0.00 0.00 0.01 0.00 0.01 0.01 0.01 0.02 0.03 0.02 0.02 0.02 0.02 0.01 0.01 0.01 0.01 0.01 0.02 0.02 0.02 0.02 0.02 0.02 0.03 0.03 0.04 0.04 0.04
0.02 0.02 0.01 0.01 0.01 0.01 0.01 0.01 0.02 0.04 0.02 0.01 0.01 0.00 0.00 0.01 0.01 0.02 0.01 0.03 0.03 0.03 0.02 0.01 0.01 0.02 0.01 0.01 0.01 0.02 0.02 0.02 0.02 0.02 0.03 0.03 0.03 0.03 0.03 0.04 0.04 0.04 0.04 0.04
0.02 0.02 0.01 0.01 0.01 0.02 0.02 0.01 0.04 0.07 0.02 0.01 0.02 0.03 0.04 0.03 0.01 0.02 0.02 0.04 0.05 0.04 0.03 0.02 0.02 0.02 0.01 0.01 0.01 0.02 0.02 0.02 0.02 0.03 0.04 0.06 0.09 0.08 0.06 0.05 0.05 0.05 0.04 0.03
0.02 0.02 0.02 0.02 0.03 0.04 0.04 0.03 0.03 0.03 0.02 0.02 0.06 0.09 0.05 0.03 0.02 0.01 0.03 0.05 0.06 0.07 0.03 0.02 0.02 0.02 0.02 0.02 0.02 0.02 0.02 0.02 0.02 0.03 0.04 0.06 0.06 0.07 0.06 0.05 0.04 0.03 0.02 0.03
0.03 0.02 0.03 0.03 0.05 0.05 0.05 0.03 0.03 0.02 0.02 0.03 0.05 0.08 0.06 0.02 0.02 0.02 0.05 0.07 0.08 0.12 0.06 0.03 0.02 0.02 0.02 0.02 0.02 0.02 0.02 0.03 0.03 0.03 0.03 0.04 0.04 0.05 0.05 0.06 0.05 0.04 0.02 0.02
0.04 0.03 0.04 0.07 0.09 0.13 0.09 0.05 0.03 0.02 0.02 0.03 0.05 0.04 0.03 0.02 0.02 0.03 0.07 0.05 0.05 0.10 0.09 0.04 0.04 0.03 0.02 0.02 0.02 0.02 0.02 0.02 0.03 0.03 0.03 0.03 0.04 0.05 0.05 0.06 0.06 0.06 0.05 0.05
0.07 0.07 0.08 0.10 0.08 0.12 0.12 0.08 0.03 0.02 0.02 0.02 0.02 0.03 0.03 0.03 0.03 0.04 0.04 0.02 0.03 0.07 0.09 0.05 0.04 0.04 0.03 0.02 0.02 0.01 0.01 0.01 0.01 0.01 0.02 0.02 0.03 0.03 0.04 0.04 0.03 0.04 0.05 0.05
MSLP
1008.25 1008.66 1008.90 1009.00 1009.02 1009.01 1009.04 1009.13 1009.31 1009.54 1009.79 1009.99 1010.11 1010.13 1010.05 1009.89 1009.71 1009.55 1009.46 1009.48 1009.60 1009.83 1010.13 1010.49 1010.87 1011.25 1011.61 1011.96 1012.30 1012.62 1012.94 1013.23 1013.49 1013.71 1013.88 1013.98 1014.03 1014.02 1013.99 1013.95 1013.93 1013.94 1013.99 1014.09
1008.69 1008.92 1009.01 1009.01 1008.98 1008.99 1009.09 1009.30 1009.59 1009.92 1010.21 1010.40 1010.44 1010.33 1010.06 1009.70 1009.33 1009.01 1008.81 1008.77 1008.90 1009.17 1009.56 1010.01 1010.48 1010.93 1011.35 1011.72 1012.07 1012.40 1012.72 1013.03 1013.31 1013.56 1013.75 1013.87 1013.92 1013.90 1013.84 1013.76 1013.69 1013.66 1013.68 1013.77
1008.97 1009.02 1008.97 1008.88 1008.84 1008.91 1009.12 1009.47 1009.91 1010.35 1010.69 1010.87 1010.82 1010.54 1010.07 1009.48 1008.88 1008.38 1008.04 1007.92 1008.04 1008.35 1008.81 1009.35 1009.91 1010.44 1010.92 1011.33 1011.71 1012.05 1012.39 1012.72 1013.03 1013.32 1013.55 1013.70 1013.77 1013.76 1013.68 1013.57 1013.46 1013.40 1013.40 1013.49
1009.08 1008.97 1008.80 1008.67 1008.66 1008.83 1009.19 1009.72 1010.32 1010.88 1011.28 1011.43 1011.28 1010.82 1010.13 1009.29 1008.45 1007.72 1007.22 1007.00 1007.06 1007.38 1007.88 1008.49 1009.13 1009.73 1010.27 1010.74 1011.15 1011.53 1011.91 1012.28 1012.65 1012.99 1013.28 1013.48 1013.59 1013.60 1013.53 1013.41 1013.29 1013.20 1013.19 1013.26
1009.03 1008.80 1008.57 1008.44 1008.50 1008.81 1009.35 1010.07 1010.84 1011.53 1011.98 1012.11 1011.85 1011.22 1010.29 1009.20 1008.10 1007.14 1006.44 1006.07 1006.05 1006.32 1006.83 1007.47 1008.15 1008.81 1009.40 1009.92 1010.38 1010.82 1011.25 1011.69 1012.14 1012.56 1012.93 1013.21 1013.39 1013.45 1013.41 1013.30 1013.17 1013.07 1013.03 1013.09
1008.84 1008.55 1008.31 1008.23 1008.40 1008.87 1009.60 1010.51 1011.44 1012.24 1012.75 1012.85 1012.49 1011.70 1010.56 1009.23 1007.89 1006.70 1005.79 1005.25 1005.10 1005.29 1005.74 1006.37 1007.05 1007.73 1008.36 1008.92 1009.44 1009.94 1010.45 1010.97 1011.51 1012.03 1012.50 1012.88 1013.15 1013.27 1013.28 1013.20 1013.07 1012.96 1012.91 1012.94
1008.54 1008.25 1008.05 1008.07 1008.38 1009.01 1009.91 1010.98 1012.05 1012.93 1013.47 1013.55 1013.11 1012.19 1010.89 1009.37 1007.82 1006.43 1005.34 1004.62 1004.32 1004.39 1004.75 1005.30 1005.95 1006.62 1007.25 1007.84 1008.41 1008.97 1009.55 1010.16 1010.80 1011.42 1012.00 1012.48 1012.83 1013.03 1013.09 1013.05 1012.94 1012.82 1012.74 1012.74
1008.17 1007.93 1007.83 1007.97 1008.41 1009.18 1010.22 1011.39 1012.54 1013.47 1014.02 1014.07 1013.58 1012.59 1011.19 1009.55 1007.87 1006.34 1005.10 1004.24 1003.79 1003.72 1003.96 1004.42 1004.99 1005.60 1006.21 1006.80 1007.39 1008.00 1008.64 1009.33 1010.05 1010.77 1011.43 1012.00 1012.43 1012.70 1012.81 1012.80 1012.70 1012.58 1012.49 1012.46
1007.76 1007.63 1007.65 1007.91 1008.47 1009.33 1010.43 1011.65 1012.80 1013.73 1014.25 1014.28 1013.77 1012.75 1011.33 1009.67 1007.97 1006.39 1005.07 1004.12 1003.56 1003.37 1003.48 1003.82 1004.29 1004.82 1005.38 1005.95 1006.53 1007.16 1007.84 1008.58 1009.35 1010.12 1010.84 1011.47 1011.95 1012.27 1012.42 1012.43 1012.35 1012.23 1012.13 1012.08
1007.36 1007.37 1007.52 1007.89 1008.53 1009.42 1010.51 1011.67 1012.75 1013.60 1014.07 1014.07 1013.56 1012.58 1011.23 1009.65 1008.01 1006.49 1005.20 1004.23 1003.61 1003.34 1003.35 1003.57 1003.93 1004.37 1004.85 1005.38 1005.94 1006.56 1007.24 1007.99 1008.77 1009.56 1010.30 1010.94 1011.44 1011.77 1011.94 1011.97 1011.91 1011.79 1011.69 1011.65
1007.02 1007.17 1007.45 1007.90 1008.56 1009.41 1010.40 1011.43 1012.36 1013.06 1013.43 1013.38 1012.90 1012.01 1010.80 1009.39 1007.93 1006.56 1005.39 1004.50 1003.90 1003.59 1003.53 1003.66 1003.92 1004.27 1004.69 1005.15 1005.68 1006.26 1006.92 1007.64 1008.40 1009.16 1009.87 1010.48 1010.97 1011.29 1011.46 1011.50 1011.45 1011.36 1011.28 1011.25
1006.76 1007.06 1007.45 1007.95 1008.58 1009.33 1010.14 1010.96 1011.67 1012.18 1012.41 1012.30 1011.85 1011.08 1010.06 1008.89 1007.69 1006.56 1005.58 1004.82 1004.30 1004.01 1003.93 1004.00 1004.20 1004.48 1004.83 1005.25 1005.73 1006.28 1006.90 1007.57 1008.28 1008.98 1009.63 1010.19 1010.63 1010.93 1011.09 1011.14 1011.11 1011.05 1011.01 1011.01
1006.61 1007.05 1007.53 1008.04 1008.60 1009.20 1009.79 1010.34 1010.79 1011.07 1011.13 1010.96 1010.55 1009.91 1009.11 1008.21 1007.30 1006.45 1005.71 1005.13 1004.73 1004.50 1004.43 1004.48 1004.63 1004.87 1005.18 1005.56 1006.01 1006.53 1007.12 1007.75 1008.40 1009.03 1009.61 1010.11 1010.50 1010.78 1010.93 1011.00 1011.01 1010.99 1011.00 1011.06
1006.59 1007.15 1007.69 1008.19 1008.65 1009.07 1009.42 1009.68 1009.85 1009.89 1009.79 1009.54 1009.16 1008.66 1008.08 1007.45 1006.83 1006.26 1005.77 1005.38 1005.11 1004.95 1004.90 1004.95 1005.09 1005.31 1005.60 1005.97 1006.42 1006.93 1007.50 1008.10 1008.71 1009.29 1009.82 1010.27 1010.62 1010.88 1011.05 1011.15 1011.21 1011.26 1011.33 1011.45
1006.70 1007.35 1007.92 1008.39 1008.74 1008.97 1009.08 1009.08 1008.98 1008.80 1008.54 1008.24 1007.89 1007.51 1007.12 1006.74 1006.38 1006.05 1005.77 1005.55 1005.39 1005.29 1005.26 1005.31 1005.44 1005.66 1005.96 1006.34 1006.81 1007.34 1007.92 1008.53 1009.12 1009.69 1010.19 1010.62 1010.97 1011.24 1011.44 1011.59 1011.72 1011.85 1011.99 1012.18
1006.91 1007.61 1008.19 1008.61 1008.85 1008.91 1008.81 1008.58 1008.27 1007.91 1007.54 1007.19 1006.88 1006.61 1006.39 1006.20 1006.05 1005.91 1005.78 1005.66 1005.57 1005.49 1005.47 1005.50 1005.62 1005.83 1006.14 1006.56 1007.07 1007.65 1008.28 1008.92 1009.54 1010.12 1010.64 1011.09 1011.46 1011.77 1012.03 1012.26 1012.47 1012.69 1012.92 1013.17
1007.20 1007.91 1008.46 1008.80 1008.93 1008.85 1008.59 1008.21 1007.75 1007.28 1006.85 1006.50 1006.24 1006.07 1005.98 1005.94 1005.93 1005.90 1005.86 1005.79 1005.69 1005.60 1005.53 1005.52 1005.61 1005.81 1006.13 1006.58 1007.14 1007.78 1008.47 1009.18 1009.86 1010.49 1011.06 1011.56 1011.99 1012.37 1012.71 1013.03 1013.34 1013.65 1013.96 1014.27
1007.52 1008.17 1008.65 1008.92 1008.95 1008.77 1008.40 1007.93 1007.40 1006.90 1006.48 1006.17 1005.98 1005.92 1005.94 1006.00 1006.07 1006.10 1006.07 1005.98 1005.83 1005.67 1005.52 1005.44 1005.47 1005.64 1005.96 1006.43 1007.03 1007.73 1008.49 1009.27 1010.02 1010.72 1011.36 1011.93 1012.44 1012.91 1013.34 1013.75 1014.16 1014.56 1014.94 1015.32
1007.80 1008.35 1008.73 1008.90 1008.85 1008.59 1008.19 1007.69 1007.18 1006.72 1006.37 1006.15 1006.07 1006.10 1006.22 1006.35 1006.46 1006.50 1006.44 1006.28 1006.05 1005.79 1005.53 1005.36 1005.31 1005.43 1005.72 1006.19 1006.82 1007.56 1008.37 1009.21 1010.02 1010.79 1011.50 1012.15 1012.74 1013.28 1013.80 1014.30 1014.79 1015.27 1015.73 1016.17
1007.99 1008.40 1008.66 1008.72 1008.60 1008.31 1007.91 1007.45 1007.02 1006.67 1006.43 1006.34 1006.39 1006.53 1006.73 1006.92 1007.05 1007.07 1006.96 1006.73 1006.40 1006.02 1005.66 1005.39 1005.26 1005.31 1005.56 1006.00 1006.62 1007.37 1008.21 1009.07 1009.92 1010.74 1011.49 1012.19 1012.84 1013.46 1014.05 1014.62 1015.19 1015.73 1016.26 1016.74
1008.05 1008.31 1008.43 1008.40 1008.22 1007.93 1007.57 1007.20 1006.89 1006.68 1006.60 1006.66 1006.84 1007.10 1007.38 1007.61 1007.75 1007.75 1007.59 1007.29 1006.88 1006.41 1005.97 1005.61 1005.41 1005.39 1005.59 1005.99 1006.57 1007.29 1008.11 1008.96 1009.81 1010.63 1011.41 1012.13 1012.81 1013.47 1014.11 1014.73 1015.35 1015.95 1016.52 1017.04
1007.98 1008.09 1008.08 1007.97 1007.76 1007.49 1007.21 1006.96 1006.79 1006.74 1006.83 1007.03 1007.34 1007.70 1008.05 1008.32 1008.47 1008.45 1008.26 1007.92 1007.47 1006.96 1006.47 1006.06 1005.81 1005.74 1005.88 1006.23 1006.76 1007.42 1008.18 1008.98 1009.79 1010.58 1011.33 1012.05 1012.74 1013.40 1014.06 1014.72 1015.37 1016.00 1016.61 1017.17
1007.77 1007.76 1007.67 1007.52 1007.31 1007.10 1006.90 1006.78 1006.76 1006.86 1007.09 1007.42 1007.83 1008.26 1008.66 1008.96 1009.11 1009.10 1008.91 1008.57 1008.12 1007.61 1007.12 1006.71 1006.44 1006.35 1006.46 1006.75 1007.21 1007.80 1008.48 1009.20 1009.93 1010.66 1011.36 1012.04 1012.71 1013.38 1014.04 1014.71 1015.38 1016.03 1016.66 1017.25
1007.47 1007.40 1007.27 1007.11 1006.95 1006.81 1006.72 1006.72 1006.83 1007.06 1007.40 1007.82 1008.29 1008.76 1009.18 1009.48 1009.64 1009.64 1009.47 1009.16 1008.75 1008.30 1007.86 1007.50 1007.26 1007.18 1007.26 1007.51 1007.91 1008.41 1009.00 1009.62 1010.27 1010.92 1011.56 1012.20 1012.84 1013.49 1014.15 1014.82 1015.50 1016.18 1016.82 1017.43
1007.12 1007.05 1006.94 1006.84 1006.75 1006.70 1006.73 1006.84 1007.06 1007.37 1007.78 1008.24 1008.72 1009.19 1009.59 1009.88 1010.03 1010.04 1009.91 1009.66 1009.32 1008.95 1008.60 1008.32 1008.15 1008.10 1008.19 1008.41 1008.75 1009.19 1009.68 1010.22 1010.78 1011.35 1011.94 1012.54 1013.15 1013.80 1014.46 1015.15 1015.84 1016.53 1017.19 1017.80
1006.79 1006.77 1006.74 1006.72 1006.73 1006.79 1006.92 1007.14 1007.43 1007.80 1008.22 1008.67 1009.13 1009.55 1009.91 1010.16 1010.30 1010.31 1010.22 1010.03 1009.79 1009.52 1009.28 1009.10 1009.00 1009.00 1009.12 1009.33 1009.63 1010.00 1010.43 1010.90 1011.39 1011.91 1012.46 1013.04 1013.66 1014.31 1015.00 1015.71 1016.42 1017.12 1017.79 1018.40
Thickness
5852 5843 5840 5851 5859 5863 5865 5859 5857 5868 5884 5870 5855 5848 5854 5860 5858 5851 5845 5841 5837 5834 5836 5834 5831 5828 5822 5816 5811 5806 5802 5798 5795 5791 5787 5783 5781 5782 5781 5780 5778 5776 5773 5772
5837 5834 5856 5870 5871 5867 5862 5854 5858 5870 5880 5870 5857 5851 5860 5861 5856 5856 5849 5845 5842 5838 5836 5834 5831 5828 5822 5817 5813 5808 5804 5801 5797 5794 5791 5788 5785 5783 5783 5782 5780 5777 5775 5773
5829 5848 5866 5862 5857 5854 5854 5853 5856 5858 5869 5869 5854 5841 5846 5854 5858 5860 5858 5855 5851 5844 5837 5834 5831 5828 5825 5820 5815 5812 5808 5804 5800 5797 5794 5791 5786 5783 5781 5779 5778 5778 5776 5774
5835 5856 5858 5852 5850 5852 5844 5866 5865 5860 5849 5843 5848 5816 5832 5844 5843 5848 5853 5855 5853 5850 5845 5839 5835 5830 5827 5824 5821 5817 5812 5807 5803 5799 5794 5789 5783 5779 5779 5780 5779 5778 5777 5775
5829 5845 5845 5840 5850 5857 5854 5869 5862 5857 5846 5839 5847 5827 5823 5844 5834 5844 5853 5856 5857 5855 5851 5845 5841 5837 5833 5831 5826 5821 5815 5809 5805 5801 5797 5791 5787 5784 5783 5782 5779 5777 5777 5775
5836 5854 5852 5849 5860 5863 5862 5857 5852 5850 5842 5816 5835 5827 5819 5836 5841 5849 5857 5860 5861 5860 5857 5852 5848 5843 5838 5835 5830 5824 5817 5811 5807 5803 5799 5794 5789 5786 5783 5780 5777 5775 5775 5773
5815 5834 5851 5856 5843 5851 5849 5829 5808 5802 5804 5809 5841 5832 5832 5855 5862 5860 5860 5863 5865 5864 5859 5853 5848 5843 5839 5835 5831 5826 5818 5811 5808 5804 5799 5796 5791 5788 5783 5779 5777 5775 5773 5771
5795 5803 5834 5844 5838 5834 5836 5831 5805 5789 5794 5810 5830 5825 5843 5868 5872 5872 5872 5871 5867 5864 5862 5856 5851 5846 5841 5836 5831 5825 5818 5812 5808 5804 5799 5796 5792 5789 5785 5781 5779 5776 5774 5772
5803 5805 5838 5845 5848 5843 5829 5829 5843 5824 5816 5807 5817 5833 5852 5869 5867 5867 5867 5866 5863 5863 5861 5857 5854 5849 5844 5838 5832 5826 5818 5812 5807 5804 5800 5796 5792 5788 5785 5782 5779 5776 5774 5773
5815 5803 5827 5838 5840 5841 5843 5838 5829 5817 5797 5794 5810 5818 5826 5841 5852 5859 5860 5859 5859 5860 5859 5857 5853 5850 5845 5839 5833 5827 5820 5813 5808 5804 5799 5795 5791 5787 5784 5781 5776 5774 5772 5771
5813 5798 5812 5821 5813 5816 5823 5827 5827 5824 5821 5802 5795 5811 5851 5848 5856 5857 5858 5859 5858 5857 5857 5855 5852 5848 5843 5838 5831 5824 5819 5812 5807 5802 5797 5793 5789 5785 5782 5778 5775 5773 5771 5769
5806 5800 5795 5809 5829 5835 5831 5826 5825 5804 5804 5814 5807 5815 5863 5861 5862 5861 5858 5858 5858 5857 5856 5854 5849 5844 5838 5832 5828 5822 5817 5811 5805 5800 5795 5790 5786 5783 5779 5776 5774 5772 5769 5767
5797 5786 5773 5784 5801 5815 5817 5825 5827 5825 5816 5808 5805 5812 5857 5858 5856 5858 5856 5853 5851 5850 5850 5847 5843 5837 5832 5828 5823 5818 5813 5808 5804 5798 5792 5787 5783 5779 5776 5773 5771 5769 5766 5763
5794 5778 5774 5774 5790 5802 5800 5812 5822 5818 5804 5805 5812 5818 5837 5843 5843 5848 5849 5847 5845 5843 5841 5838 5833 5830 5827 5823 5818 5814 5809 5806 5801 5795 5789 5784 5780 5776 5773 5770 5768 5764 5761 5759
5782 5767 5776 5790 5809 5813 5805 5806 5814 5812 5815 5811 5820 5825 5833 5840 5843 5843 5843 5841 5838 5834 5832 5830 5826 5823 5820 5817 5812 5809 5805 5801 5797 5791 5785 5781 5777 5773 5769 5766 5763 5760 5756 5754
5769 5760 5767 5773 5794 5803 5802 5806 5810 5813 5818 5820 5823 5826 5846 5847 5846 5839 5836 5834 5831 5827 5825 5823 5821 5817 5814 5811 5807 5803 5799 5796 5792 5786 5780 5777 5773 5768 5764 5760 5757 5753 5750 5747
5755 5750 5749 5757 5779 5784 5778 5800 5806 5810 5819 5821 5814 5823 5838 5832 5833 5831 5830 5829 5827 5825 5822 5818 5815 5813 5810 5807 5804 5798 5795 5791 5786 5780 5776 5772 5768 5763 5759 5755 5750 5746 5743 5739
5745 5742 5745 5751 5759 5743 5784 5819 5818 5812 5818 5826 5827 5830 5833 5830 5831 5833 5832 5827 5824 5822 5816 5811 5812 5809 5806 5804 5800 5796 5791 5786 5780 5775 5771 5767 5762 5757 5753 5748 5743 5740 5737 5733
5751 5740 5738 5742 5744 5755 5784 5806 5810 5803 5802 5823 5823 5825 5828 5831 5824 5821 5828 5828 5823 5820 5814 5811 5809 5806 5802 5798 5795 5790 5784 5779 5774 5769 5765 5761 5756 5751 5747 5742 5737 5734 5730 5726
5746 5742 5733 5735 5734 5739 5772 5804 5817 5804 5785 5814 5819 5815 5817 5817 5801 5801 5818 5820 5817 5814 5810 5806 5804 5800 5795 5792 5789 5783 5777 5772 5767 5763 5760 5756 5751 5746 5741 5736 5732 5729 5725 5720
5725 5725 5724 5729 5734 5752 5787 5804 5803 5769 5776 5807 5812 5811 5810 5806 5807 5808 5812 5809 5805 5803 5801 5800 5796 5791 5787 5785 5781 5774 5769 5764 5762 5759 5754 5749 5745 5740 5735 5731 5726 5722 5718 5713
5723 5722 5722 5728 5728 5742 5787 5791 5779 5779 5798 5804 5805 5806 5802 5802 5803 5801 5799 5796 5795 5792 5789 5789 5785 5780 5778 5776 5771 5765 5760 5758 5755 5751 5746 5741 5737 5734 5730 5725 5720 5716 5711 5706
5732 5738 5741 5739 5742 5763 5778 5776 5783 5791 5789 5794 5797 5798 5796 5792 5790 5789 5787 5784 5783 5782 5780 5780 5776 5771 5768 5766 5762 5756 5752 5750 5746 5741 5736 5733 5730 5726 5722 5718 5714 5710 5705 5702
5731 5745 5742 5739 5747 5758 5766 5772 5779 5783 5783 5788 5792 5792 5790 5785 5782 5779 5776 5774 5772 5771 5771 5770 5767 5762 5758 5757 5754 5750 5747 5743 5738 5732 5728 5725 5721 5717 5713 5709 5706 5703 5699 5695
5721 5729 5730 5731 5741 5748 5754 5760 5767 5773 5778 5780 5785 5787 5784 5780 5775 5772 5768 5765 5763 5763 5762 5761 5757 5754 5751 5749 5745 5743 5739 5735 5729 5724 5721 5717 5713 5708 5701 5695 5690 5689 5683 5684
5713 5717 5717 5717 5732 5736 5740 5753 5762 5763 5765 5770 5774 5774 5774 5773 5767 5764 5759 5757 5755 5754 5753 5751 5748 5745 5743 5741 5737 5734 5732 5728 5722 5717 5713 5710 5706 5700 5694 5687 5679 5674 5673 5671